Location: El Peñón
(10.3719°N, 67.3319°W)
Time: 04:44:24
(UTC+00:00)

Cosmos 2279 Rocket - Pass Details

Date: 13 June 2024
Orbit: 964 x 977 km, 82.9° (Epoch: 21 July)

Event Time Altitude Azimuth Distance (km) Brightness Sun altitude
Rises 23:44:23 0° 355° (N) 3,653 7.5 -12.6°
Reaches altitude 10° 23:46:52 10° 355° (N) 2,708 6.8 -13.2°
Maximum altitude 23:53:05 86° 269° (W) 978 4.0 -14.5°
Drops below altitude 10° 23:59:19 10° 178° (S) 2,717 6.0 -15.9°
Sets 00:01:50 0° 178° (S) 3,666 6.7 -16.4°
